,,Stat6,,Stat2,,Stat8,,Stat9,,Stat10,,Wind1,,Wind1,
time,status,PA1M_AVG,status,PR1M_SUM,status,RH1M_AVG,status,SR1M_AVG,status,TA1M_AVG,status,W1dAve1m,status,W1sAve1m,
2009-02-03, 00:00:00,VALID,918.848,VALID,0,VALID,100,VALID,-0.0169808,VALID,19.8815,VALID,36,VALID,0,
2009-02-03, 00:01:00,VALID,918.859,VALID,0,VALID,100,VALID,-0.0169808,VALID,19.8421,VALID,36,VALID,0,
2009-02-03, 00:02:00,VALID,918.848,VALID,0,VALID,100,VALID,-0.0169808,VALID,19.7999,VALID,36,VALID,0,
2009-02-03, 00:03:00,VALID,918.858,VALID,0,VALID,100,VALID,0,VALID,19.7777,VALID,36,VALID,0,
2009-02-03, 00:04:00,VALID,918.836,VALID,0,VALID,100,VALID,-0.0339617,VALID,19.7744,VALID,36,VALID,0,
2009-02-03, 00:05:00,VALID,918.819,VALID,0,VALID,100,VALID,-0.0339617,VALID,19.7907,VALID,36,VALID,0,
2009-02-03, 00:06:00,VALID,918.782,VALID,0,VALID,100,VALID,-0.0339617,VALID,19.7809,VALID,36,VALID,0,
2009-02-03, 00:07:00,VALID,918.765,VALID,0,VALID,100,VALID,0,VALID,19.7382,VALID,36,VALID,0,
2009-02-03, 00:08:00,VALID,918.74,VALID,0,VALID,100,VALID,-0.0679233,VALID,19.723,VALID,36,VALID,0,
2009-02-03, 00:09:00,VALID,918.717,VALID,0,VALID,100,VALID,-0.101885,VALID,19.7303,VALID,36,VALID,0,
2009-02-03, 00:10:00,VALID,918.701,VALID,0,VALID,100,VALID,-0.0849042,VALID,19.7173,VALID,34,VALID,0,
2009-02-03, 00:11:00,VALID,918.692,VALID,0,VALID,100,VALID,-0.0679233,VALID,19.6841,VALID,23,VALID,0,
2009-02-03, 00:12:00,VALID,918.683,VALID,0,VALID,100,VALID,-0.101885,VALID,19.6681,VALID,24,VALID,0,
2009-02-03, 00:13:00,VALID,918.663,VALID,0,VALID,100,VALID,-0.0679233,VALID,19.6649,VALID,35,VALID,0,
2009-02-03, 00:14:00,VALID,918.688,VALID,0,VALID,100,VALID,-0.101885,VALID,19.6684,VALID,32,VALID,0,
2009-02-03, 00:15:00,VALID,918.69,VALID,0,VALID,100,VALID,-0.0679233,VALID,19.6684,VALID,30,VALID,0,
2009-02-03, 00:16:00,VALID,918.689,VALID,0,VALID,100,VALID,-0.101885,VALID,19.6549,VALID,27,VALID,0,
2009-02-03, 00:17:00,VALID,918.69,VALID,0,VALID,100,VALID,-0.0849042,VALID,19.6516,VALID,27,VALID,0,
2009-02-03, 00:18:00,VALID,918.689,VALID,0,VALID,100,VALID,-0.0509425,VALID,19.6584,VALID,26,VALID,0,
2009-02-03, 00:19:00,VALID,918.675,VALID,0,VALID,100,VALID,-0.101885,VALID,19.6651,VALID,26,VALID,0,
2009-02-03, 00:20:00,VALID,918.663,VALID,0,VALID,100,VALID,-0.101885,VALID,19.6586,VALID,26,VALID,0,
2009-02-03, 00:21:00,VALID,918.661,VALID,0,VALID,100,VALID,-0.101885,VALID,19.6454,VALID,25,VALID,0,
2009-02-03, 00:22:00,VALID,918.647,VALID,0,VALID,100,VALID,-0.101885,VALID,19.6521,VALID,25,VALID,0,
2009-02-03, 00:23:00,VALID,918.627,VALID,0,VALID,100,VALID,0,VALID,19.6509,VALID,24,VALID,0,
2009-02-03, 00:24:00,VALID,918.62,VALID,0,VALID,100,VALID,0,VALID,19.6412,VALID,23,VALID,0,
2009-02-03, 00:25:00,VALID,918.594,VALID,0,VALID,100,VALID,0.0339617,VALID,19.6469,VALID,23,VALID,0,
2009-02-03, 00:26:00,VALID,918.581,VALID,0,VALID,100,VALID,0.0169808,VALID,19.6606,VALID,23,VALID,0,
2009-02-03, 00:27:00,VALID,918.549,VALID,0,VALID,100,VALID,0.0339617,VALID,19.6409,VALID,25,VALID,0,
2009-02-03, 00:28:00,VALID,918.54,VALID,0,VALID,100,VALID,0.0169808,VALID,19.6309,VALID,28,VALID,0,
2009-02-03, 00:29:00,VALID,918.511,VALID,0,VALID,100,VALID,0.0169808,VALID,19.6309,VALID,25,VALID,0,
2009-02-03, 00:30:00,VALID,918.498,VALID,0,VALID,100,VALID,0.0169808,VALID,19.6342,VALID,11,VALID,0,
2009-02-03, 00:31:00,VALID,918.495,VALID,0,VALID,100,VALID,0,VALID,19.6441,VALID,11,VALID,0,
2009-02-03, 00:32:00,VALID,918.479,VALID,0,VALID,100,VALID,0,VALID,19.6636,VALID,26,VALID,0,
2009-02-03, 00:33:00,VALID,918.459,VALID,0,VALID,100,VALID,0.0169808,VALID,19.6669,VALID,19,VALID,0.00121528,
2009-02-03, 00:34:00,VALID,918.448,VALID,0,VALID,100,VALID,0.0169808,VALID,19.6801,VALID,15,VALID,0.00545058,
2009-02-03, 00:35:00,VALID,918.435,VALID,0,VALID,100,VALID,0,VALID,19.6893,VALID,16,VALID,0,
2009-02-03, 00:36:00,VALID,918.423,VALID,0,VALID,100,VALID,0.0339617,VALID,19.6958,VALID,16,VALID,0,
2009-02-03, 00:37:00,VALID,918.421,VALID,0,VALID,100,VALID,0.0169808,VALID,19.7058,VALID,16,VALID,0,
2009-02-03, 00:38:00,VALID,918.4,VALID,0,VALID,100,VALID,-0.101885,VALID,19.7105,VALID,16,VALID,0,
2009-02-03, 00:39:00,VALID,918.391,VALID,0,VALID,100,VALID,-0.0849042,VALID,19.7332,VALID,16,VALID,0,
2009-02-03, 00:40:00,VALID,918.384,VALID,0,VALID,100,VALID,-0.0849042,VALID,19.7332,VALID,337,VALID,0,
2009-02-03, 00:41:00,VALID,918.376,VALID,0,VALID,100,VALID,-0.0849042,VALID,19.7295,VALID,303,VALID,0.0407774,
2009-02-03, 00:42:00,VALID,918.353,VALID,0,VALID,100,VALID,-0.0679233,VALID,19.733,VALID,302,VALID,0,
2009-02-03, 00:43:00,VALID,918.347,VALID,0,VALID,100,VALID,-0.101885,VALID,19.7168,VALID,302,VALID,0,
2009-02-03, 00:44:00,VALID,918.34,VALID,0,VALID,100,VALID,-0.0849042,VALID,19.7133,VALID,302,VALID,0,
2009-02-03, 00:45:00,VALID,918.334,VALID,0,VALID,100,VALID,-0.0679233,VALID,19.7128,VALID,302,VALID,0,
2009-02-03, 00:46:00,VALID,918.321,VALID,0,VALID,100,VALID,-0.0339617,VALID,19.7065,VALID,302,VALID,0,
2009-02-03, 00:47:00,VALID,918.317,VALID,0,VALID,100,VALID,-0.0679233,VALID,19.7133,VALID,302,VALID,0,
2009-02-03, 00:48:00,VALID,918.328,VALID,0,VALID,100,VALID,-0.0679233,VALID,19.7095,VALID,302,VALID,0,
2009-02-03, 00:49:00,VALID,918.322,VALID,0,VALID,100,VALID,-0.0849042,VALID,19.717,VALID,302,VALID,0,
2009-02-03, 00:50:00,VALID,918.341,VALID,0,VALID,100,VALID,-0.0339617,VALID,19.707,VALID,305,VALID,0,
2009-02-03, 00:51:00,VALID,918.35,VALID,0,VALID,100,VALID,-0.0849042,VALID,19.7038,VALID,305,VALID,0,
2009-02-03, 00:52:00,VALID,918.343,VALID,0,VALID,100,VALID,-0.0849042,VALID,19.7073,VALID,305,VALID,0,
2009-02-03, 00:53:00,VALID,918.345,VALID,0,VALID,100,VALID,-0.0849042,VALID,19.703,VALID,305,VALID,0,
2009-02-03, 00:54:00,VALID,918.35,VALID,0,VALID,100,VALID,-0.0849042,VALID,19.7198,VALID,305,VALID,0,
2009-02-03, 00:55:00,VALID,918.333,VALID,0,VALID,100,VALID,-0.0339617,VALID,19.7295,VALID,305,VALID,0,
2009-02-03, 00:56:00,VALID,918.331,VALID,0,VALID,100,VALID,-0.0509425,VALID,19.7457,VALID,305,VALID,0,
2009-02-03, 00:57:00,VALID,918.324,VALID,0,VALID,100,VALID,-0.0339617,VALID,19.7749,VALID,305,VALID,0,
2009-02-03, 00:58:00,VALID,918.302,VALID,0,VALID,100,VALID,-0.0509425,VALID,19.7787,VALID,305,VALID,0,
2009-02-03, 00:59:00,VALID,918.303,VALID,0,VALID,100,VALID,-0.0679233,VALID,19.7747,VALID,305,VALID,0,
2009-02-03, 01:00:00,VALID,918.289,VALID,0,VALID,100,VALID,-0.0679233,VALID,19.7844,VALID,305,VALID,0,
2009-02-03, 01:01:00,VALID,918.279,VALID,0,VALID,100,VALID,-0.0169808,VALID,19.7981,VALID,305,VALID,0,
2009-02-03, 01:02:00,VALID,918.276,VALID,0,VALID,100,VALID,-0.0339617,VALID,19.7752,VALID,305,VALID,0,
2009-02-03, 01:03:00,VALID,918.252,VALID,0,VALID,100,VALID,-0.0849042,VALID,19.7784,VALID,305,VALID,0,
2009-02-03, 01:04:00,VALID,918.234,VALID,0,VALID,100,VALID,-0.0849042,VALID,19.759,VALID,305,VALID,0,
2009-02-03, 01:05:00,VALID,918.214,VALID,0,VALID,100,VALID,-0.0509425,VALID,19.7495,VALID,305,VALID,0,
2009-02-03, 01:06:00,VALID,918.187,VALID,0,VALID,100,VALID,-0.0169808,VALID,19.7265,VALID,305,VALID,0,
2009-02-03, 01:07:00,VALID,918.14,VALID,0,VALID,100,VALID,-0.0849042,VALID,19.707,VALID,305,VALID,0,
2009-02-03, 01:08:00,VALID,918.109,VALID,0,VALID,100,VALID,-0.0339617,VALID,19.7093,VALID,305,VALID,0,
2009-02-03, 01:09:00,VALID,918.068,VALID,0,VALID,100,VALID,-0.0679233,VALID,19.7158,VALID,305,VALID,0,
2009-02-03, 01:10:00,VALID,918.02,VALID,0,VALID,100,VALID,-0.0509425,VALID,19.706,VALID,305,VALID,0,
2009-02-03, 01:11:00,VALID,917.978,VALID,0,VALID,100,VALID,-0.0509425,VALID,19.7155,VALID,305,VALID,0,
2009-02-03, 01:12:00,VALID,917.96,VALID,0,VALID,100,VALID,-0.0339617,VALID,19.7293,VALID,305,VALID,0,
2009-02-03, 01:13:00,VALID,917.943,VALID,0,VALID,100,VALID,-0.0169808,VALID,19.7258,VALID,305,VALID,0,
2009-02-03, 01:14:00,VALID,917.909,VALID,0,VALID,100,VALID,-0.0339617,VALID,19.6993,VALID,331,VALID,0,
2009-02-03, 01:15:00,VALID,917.896,VALID,0,VALID,100,VALID,-0.0509425,VALID,19.6898,VALID,8,VALID,0.0379724,
2009-02-03, 01:16:00,VALID,917.888,VALID,0,VALID,100,VALID,-0.0339617,VALID,19.6639,VALID,4,VALID,0,
2009-02-03, 01:17:00,VALID,917.883,VALID,0,VALID,100,VALID,-0.0339617,VALID,19.6539,VALID,23,VALID,0,
2009-02-03, 01:18:00,VALID,917.871,VALID,0,VALID,100,VALID,-0.0509425,VALID,19.6412,VALID,7,VALID,0,
2009-02-03, 01:19:00,VALID,917.867,VALID,0,VALID,100,VALID,-0.0169808,VALID,19.6347,VALID,6,VALID,0,
2009-02-03, 01:20:00,VALID,917.853,VALID,0,VALID,100,VALID,-0.0339617,VALID,19.6349,VALID,6,VALID,0,
2009-02-03, 01:21:00,VALID,917.846,VALID,0,VALID,100,VALID,-0.0339617,VALID,19.6347,VALID,4,VALID,0,
2009-02-03, 01:22:00,VALID,917.833,VALID,0,VALID,100,VALID,-0.0169808,VALID,19.6247,VALID,10,VALID,0,
2009-02-03, 01:23:00,VALID,917.816,VALID,0,VALID,100,VALID,-0.0509425,VALID,19.6249,VALID,23,VALID,0,
2009-02-03, 01:24:00,VALID,917.791,VALID,0,VALID,100,VALID,-0.0849042,VALID,19.6282,VALID,23,VALID,0,
2009-02-03, 01:25:00,VALID,917.782,VALID,0,VALID,100,VALID,-0.0169808,VALID,19.6441,VALID,27,VALID,0,
2009-02-03, 01:26:00,VALID,917.772,VALID,0,VALID,100,VALID,0,VALID,19.6407,VALID,13,VALID,0,
2009-02-03, 01:27:00,VALID,917.765,VALID,0,VALID,100,VALID,-0.0339617,VALID,19.6441,VALID,26,VALID,0,
2009-02-03, 01:28:00,VALID,917.764,VALID,0,VALID,100,VALID,0,VALID,19.6377,VALID,28,VALID,0,
2009-02-03, 01:29:00,VALID,917.779,VALID,0,VALID,100,VALID,-0.0339617,VALID,19.6344,VALID,22,VALID,0,
2009-02-03, 01:30:00,VALID,917.78,VALID,0,VALID,100,VALID,-0.0339617,VALID,19.6119,VALID,12,VALID,0.0697115,
2009-02-03, 01:31:00,VALID,917.791,VALID,0,VALID,100,VALID,-0.0169808,VALID,19.6115,VALID,11,VALID,0.00121528,
2009-02-03, 01:32:00,VALID,917.781,VALID,0,VALID,100,VALID,-0.0169808,VALID,19.5922,VALID,9,VALID,0,
2009-02-03, 01:33:00,VALID,917.779,VALID,0,VALID,100,VALID,-0.0339617,VALID,19.5825,VALID,358,VALID,0,
2009-02-03, 01:34:00,VALID,917.775,VALID,0,VALID,100,VALID,-0.0509425,VALID,19.586,VALID,18,VALID,0,
2009-02-03, 01:35:00,VALID,917.763,VALID,0,VALID,100,VALID,-0.0509425,VALID,19.5825,VALID,18,VALID,0,
2009-02-03, 01:36:00,VALID,917.764,VALID,0,VALID,100,VALID,-0.0679233,VALID,19.5665,VALID,18,VALID,0,
2009-02-03, 01:37:00,VALID,917.762,VALID,0,VALID,100,VALID,-0.0339617,VALID,19.5668,VALID,10,VALID,0,
2009-02-03, 01:38:00,VALID,917.757,VALID,0,VALID,100,VALID,-0.0679233,VALID,19.5568,VALID,1,VALID,0,
2009-02-03, 01:39:00,VALID,917.749,VALID,0,VALID,100,VALID,0,VALID,19.5436,VALID,1,VALID,0,
2009-02-03, 01:40:00,VALID,917.748,VALID,0,VALID,100,VALID,-0.0339617,VALID,19.5079,VALID,1,VALID,0,
2009-02-03, 01:41:00,VALID,917.739,VALID,0,VALID,100,VALID,0,VALID,19.5016,VALID,360,VALID,0,
2009-02-03, 01:42:00,VALID,917.719,VALID,0,VALID,100,VALID,-0.0509425,VALID,19.5014,VALID,5,VALID,0,
2009-02-03, 01:43:00,VALID,917.703,VALID,0,VALID,100,VALID,-0.0169808,VALID,19.5106,VALID,27,VALID,0,
2009-02-03, 01:44:00,VALID,917.683,VALID,0,VALID,100,VALID,-0.0169808,VALID,19.5273,VALID,33,VALID,0,
2009-02-03, 01:45:00,VALID,917.681,VALID,0,VALID,100,VALID,-0.0339617,VALID,19.5308,VALID,28,VALID,0,
2009-02-03, 01:46:00,VALID,917.657,VALID,0,VALID,100,VALID,0,VALID,19.5306,VALID,10,VALID,0,
2009-02-03, 01:47:00,VALID,917.656,VALID,0,VALID,100,VALID,-0.0339617,VALID,19.5338,VALID,6,VALID,0,
2009-02-03, 01:48:00,VALID,917.647,VALID,0,VALID,100,VALID,-0.0169808,VALID,19.5211,VALID,6,VALID,0,
2009-02-03, 01:49:00,VALID,917.652,VALID,0,VALID,100,VALID,-0.0339617,VALID,19.5111,VALID,6,VALID,0,
2009-02-03, 01:50:00,VALID,917.659,VALID,0,VALID,100,VALID,-0.0169808,VALID,19.5114,VALID,7,VALID,0,
2009-02-03, 01:51:00,VALID,917.663,VALID,0,VALID,100,VALID,-0.0169808,VALID,19.5046,VALID,13,VALID,0,
2009-02-03, 01:52:00,VALID,917.666,VALID,0,VALID,100,VALID,-0.0169808,VALID,19.5011,VALID,12,VALID,0,
2009-02-03, 01:53:00,VALID,917.647,VALID,0,VALID,100,VALID,-0.101885,VALID,19.5091,VALID,12,VALID,0,
2009-02-03, 01:54:00,VALID,917.635,VALID,0,VALID,100,VALID,-0.118866,VALID,19.5421,VALID,14,VALID,0,
2009-02-03, 01:55:00,VALID,917.615,VALID,0,VALID,100,VALID,-0.118866,VALID,19.5678,VALID,41,VALID,0,
2009-02-03, 01:56:00,VALID,917.605,VALID,0,VALID,100,VALID,-0.101885,VALID,19.577,VALID,55,VALID,0,
2009-02-03, 01:57:00,VALID,917.586,VALID,0,VALID,100,VALID,-0.101885,VALID,19.5733,VALID,55,VALID,0,
2009-02-03, 01:58:00,VALID,917.567,VALID,0,VALID,100,VALID,-0.118866,VALID,19.5837,VALID,55,VALID,0,
2009-02-03, 01:59:00,VALID,917.569,VALID,0,VALID,100,VALID,-0.118866,VALID,19.5673,VALID,55,VALID,0,
2009-02-03, 02:00:00,VALID,917.545,VALID,0,VALID,100,VALID,-0.101885,VALID,19.5515,VALID,29,VALID,0,
2009-02-03, 02:01:00,VALID,917.531,VALID,0,VALID,100,VALID,-0.101885,VALID,19.5321,VALID,7,VALID,0,
2009-02-03, 02:02:00,VALID,917.5,VALID,0,VALID,100,VALID,-0.101885,VALID,19.5024,VALID,29,VALID,0,
2009-02-03, 02:03:00,VALID,917.488,VALID,0,VALID,100,VALID,-0.101885,VALID,19.5021,VALID,34,VALID,0,
2009-02-03, 02:04:00,VALID,917.486,VALID,0,VALID,100,VALID,-0.101885,VALID,19.5124,VALID,30,VALID,0,
2009-02-03, 02:05:00,VALID,917.468,VALID,0,VALID,100,VALID,-0.118866,VALID,19.4954,VALID,25,VALID,0,
2009-02-03, 02:06:00,VALID,917.461,VALID,0,VALID,100,VALID,-0.118866,VALID,19.4989,VALID,17,VALID,0,
2009-02-03, 02:07:00,VALID,917.433,VALID,0,VALID,100,VALID,-0.118866,VALID,19.4864,VALID,19,VALID,0,
2009-02-03, 02:08:00,VALID,917.428,VALID,0,VALID,100,VALID,-0.0509425,VALID,19.4497,VALID,24,VALID,0,
2009-02-03, 02:09:00,VALID,917.429,VALID,0,VALID,100,VALID,-0.0339617,VALID,19.44,VALID,21,VALID,0,
2009-02-03, 02:10:00,VALID,917.417,VALID,0,VALID,100,VALID,-0.0169808,VALID,19.4333,VALID,7,VALID,0,
2009-02-03, 02:11:00,VALID,917.413,VALID,0,VALID,100,VALID,-0.0169808,VALID,19.414,VALID,2,VALID,0,
2009-02-03, 02:12:00,VALID,917.415,VALID,0,VALID,100,VALID,-0.0509425,VALID,19.4076,VALID,2,VALID,0,
2009-02-03, 02:13:00,VALID,917.403,VALID,0,VALID,100,VALID,-0.101885,VALID,19.4073,VALID,2,VALID,0,
2009-02-03, 02:14:00,VALID,917.407,VALID,0,VALID,100,VALID,-0.0339617,VALID,19.4268,VALID,2,VALID,0,
2009-02-03, 02:15:00,VALID,917.405,VALID,0,VALID,100,VALID,-0.0679233,VALID,19.4397,VALID,353,VALID,0,
2009-02-03, 02:16:00,VALID,917.398,VALID,0,VALID,100,VALID,-0.101885,VALID,19.4467,VALID,350,VALID,0,
2009-02-03, 02:17:00,VALID,917.402,VALID,0,VALID,100,VALID,-0.0679233,VALID,19.4397,VALID,350,VALID,0,
2009-02-03, 02:18:00,VALID,917.398,VALID,0,VALID,100,VALID,-0.0849042,VALID,19.4407,VALID,1,VALID,0,
2009-02-03, 02:19:00,VALID,917.408,VALID,0,VALID,100,VALID,-0.0679233,VALID,19.4372,VALID,7,VALID,0,
2009-02-03, 02:20:00,VALID,917.398,VALID,0,VALID,100,VALID,-0.0679233,VALID,19.4562,VALID,12,VALID,0,
2009-02-03, 02:21:00,VALID,917.387,VALID,0,VALID,100,VALID,-0.0509425,VALID,19.463,VALID,14,VALID,0,
2009-02-03, 02:22:00,VALID,917.39,VALID,0,VALID,100,VALID,-0.0509425,VALID,19.4562,VALID,32,VALID,0,
2009-02-03, 02:23:00,VALID,917.392,VALID,0,VALID,100,VALID,0,VALID,19.4715,VALID,30,VALID,0,
2009-02-03, 02:24:00,VALID,917.371,VALID,0,VALID,100,VALID,0.0339617,VALID,19.4842,VALID,30,VALID,0,
2009-02-03, 02:25:00,VALID,917.363,VALID,0,VALID,100,VALID,0.0339617,VALID,19.5011,VALID,32,VALID,0,
2009-02-03, 02:26:00,VALID,917.372,VALID,0,VALID,100,VALID,0.0339617,VALID,19.5131,VALID,33,VALID,0,
2009-02-03, 02:27:00,VALID,917.345,VALID,0,VALID,100,VALID,0.0169808,VALID,19.5299,VALID,40,VALID,0.0590278,
2009-02-03, 02:28:00,VALID,917.349,VALID,0,VALID,100,VALID,0.0339617,VALID,19.5531,VALID,34,VALID,0.0078125,
2009-02-03, 02:29:00,VALID,917.345,VALID,0,VALID,100,VALID,0.0849042,VALID,19.5391,VALID,32,VALID,0.166556,
2009-02-03, 02:30:00,VALID,917.337,VALID,0,VALID,100,VALID,0.0339617,VALID,19.5261,VALID,32,VALID,0.0121094,
2009-02-03, 02:31:00,VALID,917.337,VALID,0,VALID,100,VALID,0.0509425,VALID,19.5229,VALID,31,VALID,0.0456032,
2009-02-03, 02:32:00,VALID,917.335,VALID,0,VALID,100,VALID,0.0509425,VALID,19.5363,VALID,31,VALID,0,
2009-02-03, 02:33:00,VALID,917.332,VALID,0,VALID,100,VALID,0.0509425,VALID,19.5333,VALID,27,VALID,0.00109012,
2009-02-03, 02:34:00,VALID,917.314,VALID,0,VALID,100,VALID,0.0339617,VALID,19.5261,VALID,43,VALID,0,
2009-02-03, 02:35:00,VALID,917.313,VALID,0,VALID,100,VALID,0.0169808,VALID,19.5299,VALID,32,VALID,0,
2009-02-03, 02:36:00,VALID,917.31,VALID,0,VALID,100,VALID,0.0169808,VALID,19.5007,VALID,20,VALID,0.119673,
2009-02-03, 02:37:00,VALID,917.309,VALID,0,VALID,100,VALID,0,VALID,19.4675,VALID,22,VALID,0,
2009-02-03, 02:38:00,VALID,917.316,VALID,0,VALID,100,VALID,-0.0849042,VALID,19.4562,VALID,14,VALID,0.00472384,
2009-02-03, 02:39:00,VALID,917.327,VALID,0,VALID,100,VALID,-0.0339617,VALID,19.4333,VALID,29,VALID,0.0570494,
2009-02-03, 02:40:00,VALID,917.311,VALID,0,VALID,100,VALID,-0.0849042,VALID,19.4178,VALID,22,VALID,0,
2009-02-03, 02:41:00,VALID,917.302,VALID,0,VALID,100,VALID,-0.0679233,VALID,19.4308,VALID,39,VALID,0,
2009-02-03, 02:42:00,VALID,917.294,VALID,0,VALID,100,VALID,-0.101885,VALID,19.434,VALID,37,VALID,0.00120192,
2009-02-03, 02:43:00,VALID,917.271,VALID,0,VALID,100,VALID,-0.0509425,VALID,19.4073,VALID,27,VALID,0.0265997,
2009-02-03, 02:44:00,VALID,917.273,VALID,0,VALID,100,VALID,-0.101885,VALID,19.421,VALID,26,VALID,0.00111607,
2009-02-03, 02:45:00,VALID,917.271,VALID,0,VALID,100,VALID,-0.0679233,VALID,19.4213,VALID,24,VALID,0.0355283,
2009-02-03, 02:46:00,VALID,917.261,VALID,0,VALID,100,VALID,-0.0679233,VALID,19.4043,VALID,21,VALID,0,
2009-02-03, 02:47:00,VALID,917.251,VALID,0,VALID,100,VALID,-0.118866,VALID,19.4018,VALID,29,VALID,0,
2009-02-03, 02:48:00,VALID,917.238,VALID,0,VALID,100,VALID,-0.101885,VALID,19.3983,VALID,36,VALID,0,
2009-02-03, 02:49:00,VALID,917.222,VALID,0,VALID,100,VALID,-0.0849042,VALID,19.3913,VALID,29,VALID,0.0539773,
2009-02-03, 02:50:00,VALID,917.221,VALID,0,VALID,100,VALID,-0.0849042,VALID,19.3946,VALID,33,VALID,0.0308689,
2009-02-03, 02:51:00,VALID,917.219,VALID,0,VALID,100,VALID,-0.0849042,VALID,19.3848,VALID,20,VALID,0,
2009-02-03, 02:52:00,VALID,917.203,VALID,0,VALID,100,VALID,-0.101885,VALID,19.3726,VALID,29,VALID,0,
2009-02-03, 02:53:00,VALID,917.196,VALID,0,VALID,100,VALID,0,VALID,19.3709,VALID,32,VALID,0,
2009-02-03, 02:54:00,VALID,917.204,VALID,0,VALID,100,VALID,0.0169808,VALID,19.3676,VALID,24,VALID,0,
2009-02-03, 02:55:00,VALID,917.186,VALID,0,VALID,100,VALID,0.0169808,VALID,19.3572,VALID,31,VALID,0.0184152,
2009-02-03, 02:56:00,VALID,917.173,VALID,0,VALID,100,VALID,0.0169808,VALID,19.3869,VALID,35,VALID,0.00457317,
2009-02-03, 02:57:00,VALID,917.166,VALID,0,VALID,100,VALID,0.0339617,VALID,19.3901,VALID,35,VALID,0,
2009-02-03, 02:58:00,VALID,917.147,VALID,0,VALID,100,VALID,0.0169808,VALID,19.4033,VALID,29,VALID,0.00576637,
2009-02-03, 02:59:00,VALID,917.142,VALID,0,VALID,100,VALID,0.0509425,VALID,19.4131,VALID,46,VALID,0,
2009-02-03, 03:00:00,VALID,917.14,VALID,0,VALID,100,VALID,0.0509425,VALID,19.4123,VALID,28,VALID,0,
2009-02-03, 03:01:00,VALID,917.136,VALID,0.2,VALID,100,VALID,0.0509425,VALID,19.4158,VALID,25,VALID,0,
2009-02-03, 03:02:00,VALID,917.123,VALID,0,VALID,100,VALID,0.0169808,VALID,19.4161,VALID,23,VALID,0,
2009-02-03, 03:03:00,VALID,917.113,VALID,0,VALID,100,VALID,0.0169808,VALID,19.4061,VALID,21,VALID,0,
2009-02-03, 03:04:00,VALID,917.098,VALID,0,VALID,100,VALID,0.0169808,VALID,19.4031,VALID,7,VALID,0,
2009-02-03, 03:05:00,VALID,917.094,VALID,0.2,VALID,100,VALID,0.0169808,VALID,19.3739,VALID,24,VALID,0,
2009-02-03, 03:06:00,VALID,917.087,VALID,0,VALID,100,VALID,0.0339617,VALID,19.3542,VALID,19,VALID,0,
2009-02-03, 03:07:00,VALID,917.094,VALID,0,VALID,100,VALID,0.0509425,VALID,19.3507,VALID,19,VALID,0,
2009-02-03, 03:08:00,VALID,917.075,VALID,0,VALID,100,VALID,-0.0339617,VALID,19.3584,VALID,22,VALID,0,
2009-02-03, 03:09:00,VALID,917.08,VALID,0.2,VALID,100,VALID,-0.0339617,VALID,19.3619,VALID,23,VALID,0,
2009-02-03, 03:10:00,VALID,917.063,VALID,0.2,VALID,100,VALID,-0.0509425,VALID,19.3781,VALID,25,VALID,0,
2009-02-03, 03:11:00,VALID,917.046,VALID,0.2,VALID,100,VALID,-0.0679233,VALID,19.3781,VALID,27,VALID,0.124653,
2009-02-03, 03:12:00,VALID,917.023,VALID,0.2,VALID,100,VALID,-0.0339617,VALID,19.3714,VALID,33,VALID,0.771532,
2009-02-03, 03:13:00,VALID,917.018,VALID,0.2,VALID,100,VALID,-0.0169808,VALID,19.3454,VALID,20,VALID,0.285429,
2009-02-03, 03:14:00,VALID,917.017,VALID,0.2,VALID,100,VALID,-0.0509425,VALID,19.3165,VALID,16,VALID,0.0699219,
2009-02-03, 03:15:00,VALID,917.005,VALID,0.2,VALID,100,VALID,-0.0679233,VALID,19.2905,VALID,334,VALID,0.00130208,
2009-02-03, 03:16:00,VALID,916.989,VALID,0.2,VALID,100,VALID,-0.0509425,VALID,19.2479,VALID,349,VALID,0.548651,
2009-02-03, 03:17:00,VALID,916.983,VALID,0.2,VALID,100,VALID,-0.0679233,VALID,19.1505,VALID,345,VALID,0.677455,
2009-02-03, 03:18:00,VALID,916.978,VALID,0,VALID,100,VALID,-0.0679233,VALID,19.1086,VALID,29,VALID,0.933408,
2009-02-03, 03:19:00,VALID,916.982,VALID,0,VALID,100,VALID,-0.0509425,VALID,19.0732,VALID,16,VALID,0.875558,
2009-02-03, 03:20:00,VALID,916.986,VALID,0,VALID,100,VALID,-0.0339617,VALID,19.0148,VALID,14,VALID,0.653927,
2009-02-03, 03:21:00,VALID,916.992,VALID,0,VALID,100,VALID,-0.0339617,VALID,18.9853,VALID,28,VALID,0.478516,
2009-02-03, 03:22:00,VALID,916.985,VALID,0,VALID,100,VALID,-0.0509425,VALID,18.9888,VALID,39,VALID,0.692073,
2009-02-03, 03:23:00,VALID,916.986,VALID,0,VALID,100,VALID,-0.0679233,VALID,18.9793,VALID,25,VALID,0.654167,
2009-02-03, 03:24:00,VALID,916.989,VALID,0,VALID,100,VALID,-0.0339617,VALID,18.9342,VALID,10,VALID,0.690625,
2009-02-03, 03:25:00,VALID,916.978,VALID,0,VALID,100,VALID,-0.0339617,VALID,18.8945,VALID,29,VALID,0.664971,
2009-02-03, 03:26:00,VALID,916.951,VALID,0,VALID,100,VALID,-0.0849042,VALID,18.885,VALID,32,VALID,1.37413,
2009-02-03, 03:27:00,VALID,916.986,VALID,0,VALID,100,VALID,-0.101885,VALID,18.8331,VALID,2,VALID,1.31914,
2009-02-03, 03:28:00,VALID,916.982,VALID,0.2,VALID,100,VALID,-0.0849042,VALID,18.7455,VALID,3,VALID,0.554518,
2009-02-03, 03:29:00,VALID,916.984,VALID,0,VALID,100,VALID,-0.0339617,VALID,18.7131,VALID,3,VALID,0.37064,
2009-02-03, 03:30:00,VALID,916.977,VALID,0,VALID,100,VALID,-0.0339617,VALID,18.6904,VALID,10,VALID,0.156064,
2009-02-03, 03:31:00,VALID,916.948,VALID,0,VALID,100,VALID,-0.0339617,VALID,18.6545,VALID,37,VALID,0.782848,
2009-02-03, 03:32:00,VALID,916.939,VALID,0,VALID,100,VALID,-0.0509425,VALID,18.6348,VALID,39,VALID,1.40465,
2009-02-03, 03:33:00,VALID,916.959,VALID,0,VALID,100,VALID,-0.0509425,VALID,18.6223,VALID,24,VALID,0.904492,
2009-02-03, 03:34:00,VALID,916.974,VALID,0,VALID,100,VALID,-0.0339617,VALID,18.5898,VALID,22,VALID,1.45174,
2009-02-03, 03:35:00,VALID,916.98,VALID,0,VALID,100,VALID,-0.0509425,VALID,18.5701,VALID,34,VALID,1.16933,
2009-02-03, 03:36:00,VALID,917.004,VALID,0,VALID,100,VALID,-0.0509425,VALID,18.5474,VALID,22,VALID,0.83125,
2009-02-03, 03:37:00,VALID,916.994,VALID,0,VALID,100,VALID,-0.0679233,VALID,18.5278,VALID,22,VALID,0.756288,
2009-02-03, 03:38:00,VALID,917.01,VALID,0,VALID,100,VALID,-0.0679233,VALID,18.525,VALID,28,VALID,1.04358,
2009-02-03, 03:39:00,VALID,917.005,VALID,0,VALID,100,VALID,-0.0679233,VALID,18.4958,VALID,21,VALID,1.67169,
2009-02-03, 03:40:00,VALID,917.014,VALID,0,VALID,100,VALID,-0.101885,VALID,18.4504,VALID,11,VALID,2.14181,
2009-02-03, 03:41:00,VALID,917.026,VALID,0,VALID,100,VALID,-0.0509425,VALID,18.4115,VALID,19,VALID,1.80888,
2009-02-03, 03:42:00,VALID,917.024,VALID,0.2,VALID,100,VALID,-0.0679233,VALID,18.382,VALID,18,VALID,1.87409,
2009-02-03, 03:43:00,VALID,917.034,VALID,0,VALID,100,VALID,-0.0679233,VALID,18.3598,VALID,25,VALID,1.76953,
2009-02-03, 03:44:00,VALID,917.043,VALID,0,VALID,100,VALID,-0.101885,VALID,18.3301,VALID,26,VALID,1.75114,
2009-02-03, 03:45:00,VALID,917.055,VALID,0,VALID,100,VALID,-0.0849042,VALID,18.2979,VALID,12,VALID,1.30841,
2009-02-03, 03:46:00,VALID,917.064,VALID,0.2,VALID,100,VALID,-0.0339617,VALID,18.272,VALID,7,VALID,1.17222,
2009-02-03, 03:47:00,VALID,917.089,VALID,0,VALID,100,VALID,-0.0509425,VALID,18.2428,VALID,18,VALID,2.8641,